[Iaude] MPEC K101: 2024 KJ [a=1.25,e=0.19,i=6.5,H=25.6]
    mpec at cfa.harvard.edu 
    mpec at cfa.harvard.edu
       
    Tue May 28 01:17:26 EDT 2024
    
    
  
M.P.E.C. 2024-K101                                 Issued 2024 May 28, 05:16 UT
     The Minor Planet Electronic Circulars contain information on unusual
         minor planets, routine data on comets and natural satellites,
         and occasional editorial announcements.  They are published
    on behalf of Division F of the International Astronomical Union by the
          Minor Planet Center, Smithsonian Astrophysical Observatory,
                          Cambridge, MA 02138, U.S.A.
			  
             Prepared using the Tamkin Foundation Computer Network
                              MPC at CFA.HARVARD.EDU
            URL https://www.minorplanetcenter.net/    ISSN 1523-6714
                                    2024 KJ                                     
Observations:
     K24K00J* C2024 05 26.27225714 52 31.614+11 51 47.04         21.97wXEK101F52
     K24K00J  C2024 05 26.28398614 52 29.768+11 51 29.07         22.26wXEK101F52
     K24K00J  C2024 05 26.29574714 52 27.897+11 51 10.75         22.10wXEK101F52
     K24K00J  C2024 05 26.30754914 52 26.007+11 50 52.38         21.70wXEK101F52
     K24K00J  C2024 05 26.42533614 52 06.644+11 47 41.46         21.65GVEK101F52
     K24K00J  C2024 05 26.42598714 52 06.492+11 47 40.01         21.74GVEK101F52
     K24K00J  C2024 05 27.20009414 50 31.672+11 25 16.66         21.6 GVEK101H01
     K24K00J  C2024 05 27.20455214 50 30.945+11 25 08.98         21.7 GVEK101H01
     K24K00J  C2024 05 27.21472614 50 29.257+11 24 51.21         21.6 GVEK101H01
     K24K00J  C2024 05 27.22420714 50 27.685+11 24 34.45         22.4 GVEK101H01
     K24K00J  C2024 05 27.34644914 50 12.543+11 21 18.89         21.59GVEK101F52
     K24K00J  C2024 05 27.34727314 50 12.393+11 21 17.39         21.98GVEK101F52
     K24K00J  C2024 05 28.18660714 48 22.872+10 54 41.71         21.5 GVEK101H01
     K24K00J  C2024 05 28.19224514 48 21.914+10 54 30.86         21.6 GVEK101H01
     K24K00J  C2024 05 28.20443114 48 19.832+10 54 07.43         21.5 GVEK101H01
     K24K00J  C2024 05 28.20958114 48 18.949+10 53 57.45         21.1 GVEK101H01
Observer details:
F52 Pan-STARRS 2, Haleakala.  Observers J. Herman, T. Lowe, P. Minguez, A.
    Schultz, I. Smith.  Measurers K. Chambers, T. de Boer, J. Fairlamb, H.
    Gao, M. Huber, C.-C. Lin, E. Magnier, Y. Ramanjooloo, R. Wainscoat, R.
    Weryk.  1.8-m Ritchey-Chretien + CCD.
H01 Magdalena Ridge Observatory, Socorro.  Observers W. H. Ryan, E. V. Ryan.
    Measurer W. H. Ryan.  2.4-m f/8.9 Ritchey-Chretien + CCD.
Orbital elements:
2024 KJ                                                  Earth MOID = 0.0210 AU
Epoch 2024 Mar. 31.0 TT = JDT 2460400.5                 MPC                     
M 283.51097              (2000.0)            P               Q                  
n   0.70315217     Peri.  214.10286     +0.43455944     +0.89359415             
a   1.2524772      Node    81.88321     -0.79891939     +0.44010804             
e   0.1906468      Incl.    6.52285     -0.41579549     +0.08828602             
P   1.40           H   25.68          G   0.15           U   8                  
Residuals in seconds of arc
240526 F52  0.2-  0.3-    240527 H01  0.0   0.1-    240528 H01  0.0   0.0
240526 F52  0.2-  0.2-    240527 H01  0.1+  0.0     240528 H01  0.0   0.0
240526 F52  0.2-  0.2-    240527 H01  0.0   0.1+    240528 H01  0.0   0.0
240526 F52  0.0   0.1-    240527 H01  0.0   0.0     240528 H01  0.0   0.0
240526 F52  0.4+  0.3+    240527 F52  0.1+  0.0
240526 F52  0.3-  0.1-    240527 F52  0.1-  0.0
Ephemeris:
2024 KJ                  a,e,i = 1.25, 0.19, 7                   q = 1.0137
Date    TT    R. A. (2000) Decl.     Delta      r    Elong.  Phase     V
2024 04 28    15 26 54.4 +13 24 42   0.1745  1.1586   148.1    27.3    23.4
...
2024 05 13    15 14 22.4 +14 43 21   0.1239  1.1163   146.9    29.6    22.7
...
2024 05 21    15 02 26.1 +13 40 14   0.1009  1.0953   144.1    32.8    22.3
...
2024 05 27    14 50 56.1 +11 31 49   0.08502 1.0807   141.1    36.1    22.0
2024 05 28    14 48 46.1 +11 01 26   0.08249 1.0783   140.6    36.7    21.9
2024 05 29    14 46 31.2 +10 28 00   0.07999 1.0760   140.0    37.3    21.9
...
2024 06 04    14 31 03.4 +05 49 33   0.06572 1.0628   136.1    41.5    21.5
...
2024 06 12    14 03 01.0 -05 28 05   0.04924 1.0472   129.0    48.9    21.1
...
2024 06 27    11 55 14.0 -50 00 41   0.03541 1.0252   103.3    74.8    21.1
A. U. Tomatic                (C) Copyright 2024 MPC           M.P.E.C. 2024-K101
    
    
More information about the Iaude
mailing list